{"data":{"norad_id":68088,"epoch":"2026-05-25T02:50:14.555328Z","epoch_age_seconds":68768,"freshness":"FRESH","line1":"1 68088U 26042V   26145.11822402  .00020587  00000+0  61868-3 0  9995","line2":"2 68088  53.1581 183.2369 0001195  82.5176 277.5962 15.34404397 14016","mean_motion":15.34404397,"eccentricity":0.0001195,"inclination_deg":53.1581,"raan_deg":183.2369,"arg_perigee_deg":82.5176,"mean_anomaly_deg":277.5962,"bstar":0.00061868,"rev_number":1401,"period_min":93.847489150541,"perigee_km":461.8726925807,"apogee_km":463.50765027467,"semimajor_km":6840.8271714277,"source":"CELESTRAK","updated_at":"2026-05-25T13:38:21.821292Z"}}